Saginaw Browne, MI

7:52 PM EST on December 15, 2017 (GMT -0500)
Saginaw County-Browne

Weather History for KHYX - June, 2013

Change the Weather History Date:

Saturday, June 15, 2013

  Actual Average (KMBS) Record (KMBS)
Temperature  
Mean Temperature 66 °F -  
Max Temperature 78 °F 76 °F 91 °F (2001)
Min Temperature 53 °F 55 °F 42 °F (1999)
Growing Degree Days 16 (Base 50)    
Moisture  
Dew Point 55 °F    
Average Humidity 69    
Maximum Humidity 94    
Minimum Humidity 44    
Precipitation  
Precipitation 0.00 in - - ()
Sea Level Pressure  
Sea Level Pressure 30.00 in    
Wind  
Wind Speed 3 mph (SW)    
Max Wind Speed 14 mph    
Max Gust Speed 17 mph    
Visibility 10 miles    
Events      
Averages and records for this station are not official NWS values.
T = Trace of Precipitation, MM = Missing Value Source: NWS Daily Summary

Daily Weather History Graph

Daily Weather History Graph

Search for Another Location

Airport or City:

Trip Planner

Search our weather history database for the weather conditions in past years. The results will help you decide how hot, cold, wet, or windy it might be!

Date:

Astronomy

Jun. 15, 2013 Rise Set
Actual Time 5:54 AM EDT 9:18 PM EDT
Civil Twilight 5:18 AM EDT 9:53 PM EDT
Nautical Twilight 4:31 AM EDT 10:40 PM EDT
Astronomical Twilight 3:33 AM EDT 11:38 PM EDT
Moon 12:38 PM EDT (6/15) 12:43 AM EDT (6/15)
Length of Visible Light 16h 35m
Length of Day
15h 23m
Waxing Crescent, 39% of the Moon is Illuminated
Jun 15
Waxing Crescent
Jun 16
First Quarter
Jun 23
Full
Jun 30
Last Quarter
Jul 8
New

Hourly Weather History & Observations

Time (EDT) Temp. Dew Point Humidity Pressure Visibility Wind Dir Wind Speed Gust Speed Precip Events Conditions
12:11 AM 59.0 °F 50.0 °F 72% 30.04 in 10.0 mi Calm Calm - N/A   Clear
12:31 AM 59.0 °F 48.2 °F 67% 30.04 in 10.0 mi Calm Calm - N/A   Clear
12:51 AM 59.0 °F 48.2 °F 67% 30.04 in 10.0 mi Calm Calm - N/A   Clear
1:11 AM 55.4 °F 50.0 °F 82% 30.04 in 10.0 mi NNE 3.5 mph - N/A   Clear
1:31 AM 55.4 °F 50.0 °F 82% 30.03 in 10.0 mi Calm Calm - N/A   Clear
1:51 AM 55.4 °F 50.0 °F 82% 30.02 in 10.0 mi NE 3.5 mph - N/A   Clear
2:12 AM 55.4 °F 50.0 °F 82% 30.03 in 10.0 mi Calm Calm - N/A   Clear
2:32 AM 55.4 °F 50.0 °F 82% 30.02 in 10.0 mi Calm Calm - N/A   Clear
2:52 AM 55.4 °F 51.8 °F 88% 30.03 in 10.0 mi Calm Calm - N/A   Clear
3:12 AM 53.6 °F 51.8 °F 94% 30.03 in 10.0 mi Calm Calm - N/A   Clear
3:32 AM 53.6 °F 51.8 °F 94% 30.04 in 10.0 mi Calm Calm - N/A   Clear
3:52 AM 53.6 °F 51.8 °F 94% 30.04 in 10.0 mi Calm Calm - N/A   Clear
4:12 AM 53.6 °F 51.8 °F 94% 30.04 in 10.0 mi Calm Calm - N/A   Clear
4:32 AM 53.6 °F 51.8 °F 94% 30.03 in 10.0 mi South 3.5 mph - N/A   Clear
4:52 AM 53.6 °F 51.8 °F 94% 30.03 in 10.0 mi South 3.5 mph - N/A   Clear
5:12 AM 53.6 °F 51.8 °F 94% 30.02 in 10.0 mi Calm Calm - N/A   Clear
5:32 AM 53.6 °F 51.8 °F 94% 30.03 in 10.0 mi WSW 3.5 mph - N/A   Clear
5:53 AM 53.6 °F 51.8 °F 94% 30.04 in 10.0 mi Calm Calm - N/A   Clear
6:13 AM 55.4 °F 53.6 °F 94% 30.05 in 10.0 mi Calm Calm - N/A   Clear
6:33 AM 55.4 °F 53.6 °F 94% 30.05 in 10.0 mi Calm Calm - N/A   Clear
6:53 AM 55.4 °F 53.6 °F 94% 30.06 in 10.0 mi Calm Calm - N/A   Mostly Cloudy
7:13 AM 55.4 °F 53.6 °F 94% 30.06 in 10.0 mi Calm Calm - N/A   Overcast
7:33 AM 57.2 °F 55.4 °F 94% 30.06 in 10.0 mi SW 3.5 mph - N/A   Mostly Cloudy
7:53 AM 59.0 °F 55.4 °F 88% 30.07 in 10.0 mi SW 5.8 mph - N/A   Scattered Clouds
8:13 AM 59.0 °F 53.6 °F 82% 30.06 in 10.0 mi SW 5.8 mph - N/A   Scattered Clouds
8:34 AM 60.8 °F 53.6 °F 77% 30.06 in 10.0 mi WSW 5.8 mph - N/A   Clear
8:54 AM 62.6 °F 53.6 °F 72% 30.06 in 10.0 mi SW 3.5 mph - N/A   Clear
9:14 AM 62.6 °F 55.4 °F 77% 30.05 in 10.0 mi Calm Calm - N/A   Clear
9:34 AM 62.6 °F 55.4 °F 77% 30.06 in 10.0 mi Calm Calm - N/A   Clear
9:54 AM 64.4 °F 55.4 °F 73% 30.06 in 10.0 mi Calm Calm - N/A   Clear
10:14 AM 68.0 °F 55.4 °F 64% 30.05 in 10.0 mi Calm Calm - N/A   Clear
10:34 AM 71.6 °F 53.6 °F 53% 30.04 in 10.0 mi Calm Calm - N/A   Clear
10:55 AM 71.6 °F 51.8 °F 50% 30.03 in 10.0 mi Calm Calm - N/A   Clear
11:15 AM 71.6 °F 50.0 °F 46% 30.02 in 10.0 mi Calm Calm - N/A   Clear
11:35 AM 73.4 °F 50.0 °F 44% 30.02 in 10.0 mi Calm Calm - N/A   Clear
11:55 AM 73.4 °F 50.0 °F 44% 30.01 in 10.0 mi Calm Calm - N/A   Clear
12:15 PM 73.4 °F 50.0 °F 44% 30.01 in 10.0 mi Calm Calm - N/A   Clear
12:30 PM 73.4 °F 51.8 °F 47% 30.00 in 10.0 mi SSW 3.5 mph - N/A   Clear
12:50 PM 77.0 °F 53.6 °F 44% 30.00 in 10.0 mi SSW 6.9 mph - N/A   Clear
1:10 PM 77.0 °F 53.6 °F 44% 30.00 in 10.0 mi Calm Calm - N/A   Clear
1:30 PM 77.0 °F 55.4 °F 47% 30.00 in 10.0 mi WSW 5.8 mph - N/A   Scattered Clouds
1:51 PM 78.8 °F 55.4 °F 44% 29.99 in 10.0 mi SW 9.2 mph 17.3 mph N/A   Scattered Clouds
2:11 PM 78.8 °F 55.4 °F 44% 29.99 in 10.0 mi SW 10.4 mph - N/A   Scattered Clouds
2:31 PM 78.8 °F 55.4 °F 44% 29.99 in 10.0 mi WSW 8.1 mph - N/A   Mostly Cloudy
2:51 PM 78.8 °F 55.4 °F 44% 29.99 in 10.0 mi SW 10.4 mph - N/A   Mostly Cloudy
3:11 PM 77.0 °F 59.0 °F 54% 29.99 in 10.0 mi WSW 10.4 mph - N/A   Scattered Clouds
3:31 PM 78.8 °F 59.0 °F 51% 29.99 in 10.0 mi WSW 13.8 mph - N/A   Clear
3:51 PM 77.0 °F 59.0 °F 54% 29.99 in 10.0 mi WSW 9.2 mph - N/A   Clear
4:11 PM 77.0 °F 57.2 °F 50% 29.99 in 10.0 mi WSW 10.4 mph - N/A   Scattered Clouds
4:31 PM 77.0 °F 59.0 °F 54% 29.98 in 10.0 mi SW 8.1 mph - N/A   Mostly Cloudy
4:51 PM 77.0 °F 59.0 °F 54% 29.98 in 10.0 mi WSW 8.1 mph - N/A   Scattered Clouds
5:11 PM 77.0 °F 57.2 °F 50% 29.97 in 10.0 mi SW 10.4 mph - N/A   Mostly Cloudy
5:31 PM 77.0 °F 57.2 °F 50% 29.96 in 10.0 mi West 6.9 mph 10.4 mph N/A   Mostly Cloudy
5:51 PM 77.0 °F 59.0 °F 54% 29.95 in 10.0 mi NW 9.2 mph - N/A   Overcast
6:11 PM 77.0 °F 59.0 °F 54% 29.95 in 10.0 mi WSW 8.1 mph - N/A   Overcast
6:32 PM 77.0 °F 59.0 °F 54% 29.94 in 10.0 mi West 8.1 mph - N/A   Overcast
6:52 PM 77.0 °F 59.0 °F 54% 29.94 in 10.0 mi WSW 8.1 mph - N/A   Overcast
7:12 PM 77.0 °F 59.0 °F 54% 29.94 in 10.0 mi WSW 12.7 mph 16.1 mph N/A   Overcast
7:32 PM 75.2 °F 59.0 °F 57% 29.94 in 10.0 mi WSW 8.1 mph - N/A   Overcast
7:52 PM 73.4 °F 59.0 °F 61% 29.94 in 10.0 mi West 11.5 mph - N/A   Overcast
8:12 PM 73.4 °F 59.0 °F 61% 29.93 in 10.0 mi WSW 9.2 mph - N/A   Overcast
8:32 PM 73.4 °F 59.0 °F 61% 29.92 in 10.0 mi SW 5.8 mph - N/A   Mostly Cloudy
8:53 PM 71.6 °F 59.0 °F 64% 29.92 in 10.0 mi SW 9.2 mph - N/A   Mostly Cloudy
9:13 PM 71.6 °F 59.0 °F 64% 29.91 in 10.0 mi SW 9.2 mph - N/A   Scattered Clouds
9:33 PM 71.6 °F 59.0 °F 64% 29.90 in 10.0 mi SW 3.5 mph - N/A   Mostly Cloudy
9:53 PM 69.8 °F 59.0 °F 68% 29.90 in 10.0 mi SSW 4.6 mph - N/A   Mostly Cloudy
10:13 PM 68.0 °F 60.8 °F 78% 29.90 in 10.0 mi South 4.6 mph - N/A   Clear
10:33 PM 68.0 °F 60.8 °F 78% 29.90 in 10.0 mi South 4.6 mph - N/A   Clear
10:53 PM 66.2 °F 60.8 °F 83% 29.90 in 10.0 mi South 4.6 mph - N/A   Clear
11:13 PM 66.2 °F 60.8 °F 83% 29.90 in 10.0 mi South 5.8 mph - N/A   Clear
11:34 PM 66.2 °F 60.8 °F 83% 29.89 in 10.0 mi SSW 6.9 mph - N/A   Clear
11:54 PM 68.0 °F 60.8 °F 78% 29.90 in 10.0 mi SSW 9.2 mph - N/A   Clear